Cold Bay, AK

4:10 PM AKDT on October 19, 2017 (GMT -0800)
Cold Bay

Weather History for PACD - October, 2012

Change the Weather History Date:

Friday, October 26, 2012

  Actual Average Record
Temperature  
Mean Temperature 40 °F 38 °F  
Max Temperature 47 °F 43 °F 69 °F (1964)
Min Temperature 33 °F 33 °F 14 °F (1966)
Degree Days  
Heating Degree Days 25 27  
Month to date heating degree days 593 624  
Since 1 July heating degree days 2110 1970  
Cooling Degree Days 0 0  
Month to date cooling degree days 0 0  
Year to date cooling degree days 0 0  
Moisture  
Dew Point 30 °F    
Average Humidity 68    
Maximum Humidity 82    
Minimum Humidity 44    
Precipitation  
Precipitation 0.00 in 0.15 in 2.05 in (1956)
Month to date precipitation 4.61 4.01  
Year to date precipitation 35.77 31.48  
Snow  
Snow 0.00 in 0.10 in 1.90 in (1990)
Month to date snowfall 0.6 1.6  
Since 1 July snowfall 0.6 1.6  
Since 1 September snowfall 0.6 1.6  
Snow Depth 0.00 in    
Sea Level Pressure  
Sea Level Pressure 30.05 in    
Wind  
Wind Speed 14 mph (NNE)    
Max Wind Speed 25 mph    
Max Gust Speed 32 mph    
Visibility 10 miles    
Events      
T = Trace of Precipitation, MM = Missing Value Source: NWS Daily Summary

Daily Weather History Graph

Daily Weather History Graph

Search for Another Location

Airport or City:

Trip Planner

Search our weather history database for the weather conditions in past years. The results will help you decide how hot, cold, wet, or windy it might be!

Date:

Astronomy

Oct. 26, 2012 Rise Set
Actual Time 9:44 AM AKDT 7:24 PM AKDT
Civil Twilight 9:06 AM AKDT 8:02 PM AKDT
Nautical Twilight 8:23 AM AKDT 8:44 PM AKDT
Astronomical Twilight 7:41 AM AKDT 9:26 PM AKDT
Moon 6:04 PM AKDT (10/26) 6:29 AM AKDT (10/26)
Length of Visible Light 10h 55m
Length of Day
9h 39m
Waxing Gibbous, 92% of the Moon is Illuminated
Oct 26
Waxing Gibbous
Oct 29
Full
Nov 6
Last Quarter
Nov 13
New
Nov 20
First Quarter

Hourly Weather History & Observations

Time (AKDT) Temp. Windchill Dew Point Humidity Pressure Visibility Wind Dir Wind Speed Gust Speed Precip Events Conditions
12:53 AM 39.0 °F 31.8 °F 28.9 °F 67% 30.21 in 10.0 mi NNE 11.5 mph - N/A   Mostly Cloudy
1:53 AM 37.0 °F 28.9 °F 28.9 °F 73% 30.20 in 10.0 mi North 12.7 mph - N/A   Overcast
2:53 AM 39.0 °F 31.0 °F 28.9 °F 67% 30.19 in 10.0 mi NNE 13.8 mph - N/A   Overcast
3:53 AM 37.9 °F 28.9 °F 28.9 °F 70% 30.18 in 10.0 mi NE 16.1 mph - N/A   Mostly Cloudy
4:53 AM 37.9 °F 28.9 °F 28.0 °F 68% 30.16 in 10.0 mi NNE 16.1 mph - N/A   Clear
5:53 AM 41.0 °F 34.7 °F 30.0 °F 65% 30.16 in 10.0 mi ENE 10.4 mph - N/A   Overcast
6:53 AM 37.0 °F 29.8 °F 28.0 °F 70% 30.14 in 10.0 mi North 10.4 mph - N/A   Mostly Cloudy
7:53 AM 36.0 °F 29.6 °F 28.0 °F 73% 30.14 in 10.0 mi NNE 8.1 mph - N/A   Scattered Clouds
8:53 AM 37.9 °F 31.5 °F 28.9 °F 70% 30.12 in 10.0 mi NNE 9.2 mph - N/A   Mostly Cloudy
9:53 AM 35.1 °F 26.9 °F 27.0 °F 72% 30.11 in 10.0 mi North 11.5 mph - N/A   Scattered Clouds
10:53 AM 39.0 °F 31.8 °F 30.9 °F 73% 30.10 in 10.0 mi NE 11.5 mph 19.6 mph N/A   Mostly Cloudy
11:53 AM 39.9 °F 33.4 °F 28.9 °F 65% 30.08 in 10.0 mi NNE 10.4 mph 24.2 mph N/A   Partly Cloudy
12:53 PM 44.1 °F 37.4 °F 30.9 °F 60% 30.06 in 10.0 mi NE 13.8 mph 25.3 mph N/A   Scattered Clouds
1:53 PM 45.0 °F 36.4 °F 30.9 °F 58% 30.04 in 10.0 mi NE 23.0 mph 28.8 mph N/A   Scattered Clouds
2:53 PM 45.0 °F 38.9 °F 33.1 °F 63% 30.01 in 10.0 mi ENE 12.7 mph - N/A   Partly Cloudy
3:53 PM 46.9 °F - 32.0 °F 56% 29.99 in 10.0 mi NNE 13.8 mph - N/A   Partly Cloudy
4:53 PM 46.9 °F - 30.9 °F 54% 29.97 in 10.0 mi NNE 15.0 mph - N/A   Scattered Clouds
5:53 PM 44.1 °F 35.7 °F 32.0 °F 63% 29.94 in 10.0 mi NE 20.7 mph 31.1 mph N/A   Clear
6:53 PM 41.0 °F 31.9 °F 33.1 °F 73% 29.93 in 10.0 mi NNE 19.6 mph 26.5 mph N/A   Clear
7:53 PM 39.9 °F 30.5 °F 32.0 °F 73% 29.91 in 10.0 mi NNE 19.6 mph 26.5 mph N/A   Clear
8:53 PM 39.0 °F 29.0 °F 33.1 °F 79% 29.91 in 10.0 mi NE 20.7 mph 31.1 mph N/A   Clear
9:53 PM 36.0 °F 27.5 °F 30.9 °F 82% 29.90 in 10.0 mi NNE 12.7 mph - N/A   Clear
10:53 PM 36.0 °F 27.5 °F 30.0 °F 79% 29.90 in 10.0 mi NNE 12.7 mph - N/A   Clear
11:53 PM 34.0 °F 27.2 °F 28.0 °F 79% 29.89 in 10.0 mi North 8.1 mph - N/A   Clear